Location: Avully
(45.9633°N, 6.0228°E)
Time: 12:46:32
(UTC+00:00)

Cosmos 1408 - Pass Details

Date: 23 May 2024
Orbit: 363 x 377 km, 82.6° (Epoch: 16 June)

Event Time Altitude Azimuth Distance (km) Brightness Sun altitude
Exits shadow 02:54:15 10° 260° (W) 1,343 4.3 -9.3°
Maximum altitude 02:55:40 13° 289° (WNW) 1,191 4.3 -9.1°
Drops below altitude 10° 02:57:10 10° 320° (NW) 1,362 4.9 -8.9°
Sets 02:59:56 0° 350° (N) 2,216 6.4 -8.5°
